Location: *
(47.6000°N, 3.7500°E)
Time: 22:52:50
(UTC+00:00)

Daily predictions for brighter satellites

Satellite Brightness Start Highest point End
(mag) Time Altitude Azimuth Time Altitude Azimuth Time Altitude Azimuth
Nadezhda 1 Rocket 4.3 18:11:33 10° SSE 18:17:12 43° E 18:22:54 10° NNE
Cosmos 1461 2.8 18:15:15 10° SSW 18:19:11 57° ESE 18:23:05 10° NE
Cosmos 1707 3.8 18:16:02 10° NNE 18:19:21 25° ENE 18:22:39 10° SE
SL-16 R/B 3.9 18:16:16 10° N 18:20:00 17° NE 18:23:43 10° E
Cosmos 2333 4.4 18:17:07 10° NNW 18:22:48 81° WSW 18:28:31 10° SSE
COSMOS 2455 3.4 18:19:21 10° NW 18:25:19 63° WSW 18:31:13 10° SSE
Cosmos 2219 Rocket 2.2 18:20:06 10° NNW 18:25:44 76° ENE 18:31:20 10° SSE
Envisat 4.3 18:22:36 10° S 18:27:27 45° W 18:32:20 10° NNW
Timation 2 Rocket 4.0 18:22:38 10° SSW 18:29:13 77° ESE 18:35:33 10° NNE
SJ-6B 4.0 18:27:53 10° ESE 18:31:19 26° ENE 18:34:42 10° N
ERBS 4.3 18:29:32 10° NW 18:32:08 20° NNE 18:34:43 10° ENE
COSMO-SKYMED 1 3.7 18:27:59 10° N 18:32:11 49° WNW 18:36:22 10° SW
COSMOS 2428 2.7 18:27:54 10° NNW 18:33:38 87° ENE 18:39:19 10° SSE
Cosmos 1300 Rocket 3.8 18:29:46 10° SSW 18:34:03 76° W 18:38:24 10° N
Aureole 1 Rocket 3.3 18:29:33 10° NNW 18:34:57 82° WSW 18:38:59 10° SSE
Cosmos 2251 Rocket 4.2 18:29:39 10° NNW 18:34:59 62° WSW 18:40:15 10° S
NOAA 11 4.2 18:30:06 10° SSE 18:35:35 80° ENE 18:41:06 10° NNW
H-2A R/B 3.0 18:33:38 10° ESE 18:37:41 26° ENE 18:41:50 10° N
Cosmos 2360 Rocket 4.1 18:33:06 10° NW 18:38:05 33° WSW 18:43:03 10° SSW
ISS -1.7 18:37:16 10° SSE 18:38:39 12° SE 18:39:17 12° ESE
MOS 1 4.4 18:34:23 10° SSE 18:39:59 60° ENE 18:45:35 10° N
Cosmos 2151 Rocket 4.0 18:36:13 10° SSW 18:40:36 67° W 18:45:00 10° N
CZ-2D R/B 3.5 18:40:21 10° S 18:44:08 70° WSW 18:47:57 10° NNW
Cosmos 1939 Rocket 2.9 18:41:25 10° S 18:45:17 81° WSW 18:49:10 10° NNW
Cosmos 1190 Rocket 4.5 18:44:40 10° NNW 18:49:45 43° ENE 18:54:14 13° SE
Lacrosse 5 rocket 3.0 18:48:58 10° SSE 18:49:55 12° SE 18:49:55 12° SE
SAR-Lupe-2 3.7 18:48:22 10° NNE 18:51:52 48° E 18:55:20 10° S
Cosmos 1544 3.0 18:50:29 10° S 18:54:04 86° E 18:57:42 10° N
Cosmos 2227 Rocket 3.1 18:49:41 10° SSE 18:54:14 25° ESE 18:58:48 10° NE
Cosmos 2219 3.5 18:50:07 10° S 18:55:30 43° ESE 19:00:55 10° NE
Cosmos 1455 Rocket 4.1 18:54:38 11° SE 18:57:56 24° E 19:01:31 10° NE
ARGOS 3.7 18:53:49 12° SE 18:58:19 38° ENE 19:03:17 10° N
Cosmos 2341 Rocket 4.1 18:52:36 10° N 18:58:46 55° ENE 19:04:51 10° SSE
Cosmos 2181 Rocket 4.5 18:55:47 10° SSE 19:01:28 39° E 19:07:16 10° NNE
CZ-2C R/B 3.8 18:57:22 10° NNE 19:01:44 50° E 19:06:02 10° S
Cosmos 389 Rocket 2.6 18:58:47 10° N 19:02:08 47° ENE 19:04:30 17° SE
Cosmos 2297 Rocket 2.8 18:59:54 10° SSE 19:04:51 32° ESE 19:09:49 10° NE
Meteor 1-15 Rocket 4.5 18:59:46 10° SSE 19:05:18 50° E 19:10:57 10° NNE
GEOS 3 Rocket 3.9 19:01:46 10° SSE 19:06:50 67° SW 19:11:58 10° NW
Ariane Rocket 3.8 19:04:43 10° S 19:09:39 52° W 19:14:38 10° NNW
NOSS 3-4 (A) 4.0 19:06:38 10° NW 19:13:38 79° SW 19:20:46 12° SSE
NOSS 3-4 (C) 4.0 19:06:44 10° NW 19:13:44 80° SW 19:20:50 12° SSE
Cosmos 1437 Rocket 3.8 19:10:45 10° NNE 19:13:59 26° ENE 19:14:27 25° E
FREGAT/IRIS 3.0 19:11:37 10° S 19:14:23 57° W 19:17:10 10° NNW
Cosmos 614 Rocket 3.9 19:09:13 10° NNW 19:14:27 71° ENE 19:18:31 17° SSE
Cosmos 405 Rocket 3.0 19:11:37 10° SSE 19:15:06 41° E 19:18:37 10° NNE
Cosmos 2218 Rocket 4.3 19:10:58 10° N 19:17:06 47° ENE 19:21:36 18° SE
EO 1 Delta rocket 4.4 19:11:06 10° SSE 19:17:55 89° W 19:23:18 10° N
Cosmos 2154 Rocket 4.3 19:12:28 10° NNW 19:18:38 68° W 19:24:46 10° S
Cosmos 2056 Rocket 3.7 19:14:28 10° S 19:19:42 50° ESE 19:24:54 10° NNE
Okean 1 Rocket 3.7 19:15:43 10° SSW 19:19:59 59° WNW 19:24:20 10° N
Cosmos 2366 rocket 4.3 19:14:27 10° N 19:20:35 47° ENE 19:24:45 20° SE
Cosmos 407 Rocket 3.4 19:15:53 10° NNW 19:21:03 83° ENE 19:25:02 17° SSE
Resurs 1-3 4.0 19:21:40 28° ESE 19:23:31 44° ENE 19:27:42 10° N
GENESIS II 4.5 19:21:15 10° NNW 19:25:19 55° NE 19:26:44 35° ESE
Cosmos 2333 Rocket 3.6 19:21:34 10° NW 19:26:49 38° WSW 19:32:03 10° S
Meteor 1-4 Rocket 2.3 19:24:07 10° N 19:27:41 74° ENE 19:29:05 34° SSE
Meteor 1-24 Rocket 4.2 19:22:14 10° N 19:27:42 42° ENE 19:30:18 27° ESE
Meteor 2-17 Rocket 4.3 19:21:38 10° N 19:27:45 73° E 19:33:19 12° SSE
In-Cosmos 22 4.0 19:25:01 10° N 19:30:24 85° E 19:35:25 13° SSE
Resurs 01 Rocket 2.1 19:29:23 33° ESE 19:30:36 41° ENE 19:34:47 10° N
SL-8 Rocket 3.9 19:24:40 10° N 19:30:53 68° E 19:35:53 16° SSE
SL-08 RB Rocket 4.0 19:29:16 30° SE 19:31:13 50° ENE 19:35:45 10° N
Cosmos 1624 Rocket 3.9 19:26:27 10° S 19:31:34 63° ESE 19:36:43 10° NNE
RESURS DK-1 4.1 19:29:02 10° N 19:31:58 18° NE 19:32:24 18° NE
CZ-2C R/B 3.5 19:29:58 29° ESE 19:32:20 47° ENE 19:37:37 10° N
Cosmos 2237 Rocket 2.3 19:28:39 10° NNW 19:34:23 81° WSW 19:38:28 20° SSE
ADEOS Rocket 3.5 19:27:23 10° NNE 19:34:38 59° E 19:42:16 10° S
USA 234 4.3 19:29:13 10° ENE 19:35:14 40° N 19:41:15 10° WNW
SL-8 R/B 3.7 19:32:55 10° W 19:37:44 81° N 19:39:50 34° E
Cosmos 1674 3.0 19:36:29 10° N 19:39:57 44° ENE 19:39:57 44° ENE
BREEZE-M DEB (TANK) 4.0 19:26:59 10° WNW 19:40:07 65° SSW 19:41:49 35° SE
Cosmos 1805 4.2 19:42:10 32° NE 19:42:10 32° NE 19:44:46 10° NNE
Cosmos 1954 Rocket 4.0 19:37:39 10° NNW 19:42:52 66° ENE 19:44:49 38° SE
Cosmos 1980 4.0 19:38:07 10° NNW 19:43:44 65° WSW 19:47:47 19° S
Cosmos 1959 Rocket 4.4 19:38:28 10° N 19:44:36 71° E 19:48:25 24° SSE
Cosmos 1140 Rocket 3.4 19:40:15 10° NNW 19:45:28 89° ENE 19:47:56 32° SSE
SPOT 3 Rocket 3.9 19:41:13 10° S 19:46:16 64° WSW 19:51:24 10° NNW
Spot 2 Rocket 4.0 19:45:58 36° E 19:46:44 38° ENE 19:51:23 10° N
USA 186 3.4 19:44:29 13° SSW 19:47:13 36° W 19:50:26 10° NNW
Meteor 2-5 Rocket 3.7 19:44:17 10° N 19:50:07 83° ENE 19:53:38 26° SSE
Cosmos 1892 Rocket 4.1 19:49:10 10° NNW 19:53:34 58° W 19:56:35 19° S
ATLAS 2AS CENTAUR R/B 4.2 19:50:03 10° NW 19:56:40 34° WSW 20:02:51 10° S
Cosmos 1371 Rocket 4.4 19:57:30 10° SSW 20:02:46 65° WNW 20:08:08 10° NNE
KORONAS-FOTON 3.9 19:59:34 10° N 20:02:51 62° NNE 20:02:51 62° NNE
Meteor 1-22 Rocket 4.3 20:01:13 28° S 20:04:30 65° E 20:10:34 10° NNE
SL-16 R/B 2.1 19:59:27 10° NNW 20:05:10 73° ENE 20:06:31 52° SE
ERBS 3.3 20:05:42 10° NW 20:08:14 44° NNW 20:08:14 44° NNW
Cosmos 1452 Rocket 4.2 20:15:46 39° NE 20:15:46 39° NE 20:19:15 10° NNE
ISS -1.2 20:11:34 10° SW 20:12:14 15° SW 20:12:14 15° SW
Cosmos 676 Rocket 4.3 20:10:03 10° NNW 20:15:16 64° WSW 20:16:51 43° S
H-2A R/B 2.9 20:13:51 21° SSW 20:16:53 46° W 20:21:43 10° NNW
SPOT 5 4.4 20:18:57 24° NE 20:18:57 24° NE 20:22:00 10° N
CZ-2C R/B 3.5 20:14:13 10° NNE 20:17:55 35° ENE 20:17:55 35° ENE
Cosmos 2082 3.5 20:15:01 10° SSW 20:20:43 75° ESE 20:26:28 10° NNE
Cosmos 1766 3.9 20:25:16 54° NW 20:25:16 54° NW 20:28:38 10° N
Lacrosse 5 rocket 3.8 20:25:31 10° SW 20:25:40 11° SW 20:25:40 11° SW
MetOp-B 4.0 20:33:25 83° SE 20:33:37 86° ENE 20:39:00 10° NNW
Cosmos 1626 4.3 20:31:50 10° N 20:33:10 20° N 20:33:10 20° N
Cosmos 2227 Rocket 2.7 20:32:20 10° SW 20:37:53 57° WNW 20:43:30 10° NNE
USA 245 4.3 20:45:55 81° ESE 20:46:07 83° ENE 20:51:55 10° NNW
Cosmos 1850 Rocket 4.1 20:42:27 10° NNW 20:47:06 71° NW 20:47:06 71° NW
Terra 3.5 20:49:57 24° NNE 20:49:57 24° NNE 20:52:16 10° N
Cosmos 2297 Rocket 3.1 20:43:17 10° SW 20:48:43 46° NW 20:54:11 10° NNE
Nadezhda 3 Rocket 3.9 20:57:56 85° NNE 20:57:56 85° NNE 21:03:59 10° N
Resurs 01 Rocket 3.6 21:06:58 23° W 21:07:15 23° W 21:10:49 10° NW
Cosmos 1943 3.9 21:02:15 10° NNW 21:06:39 45° NNE 21:06:39 45° NNE
RESURS DK-1 4.4 21:06:19 10° NW 21:08:17 27° NW 21:08:17 27° NW
Cosmos 1821 Rocket 4.1 21:08:40 10° NNW 21:14:37 66° W 21:14:37 66° W
SPOT 1/Viking Rocket 4.4 21:17:27 47° NNW 21:17:27 47° NNW 21:21:09 10° NNW
CZ-4C R/B 4.2 21:10:45 10° NNW 21:16:17 27° NNE 21:18:32 23° NE
USA 234 4.0 21:16:03 39° NE 21:17:27 45° NNE 21:23:36 10° NW
ERS-1 Rocket 4.0 21:20:39 42° NNW 21:20:39 42° NNW 21:23:58 10° NNW
SL-16 R/B 4.2 21:44:44 10° NW 21:48:25 19° W 21:48:25 19° W
CZ-2C R/B 4.2 21:54:44 10° N 21:59:26 33° WNW 21:59:26 33° WNW
Terra 4.4 22:28:51 17° NW 22:28:51 17° NW 22:30:05 10° NNW
Cosmos 2263 Rocket 4.3 22:50:06 22° N 22:50:06 22° N 22:52:10 10° NNE
CZ-4C R/B 3.7 22:59:09 10° NW 23:03:41 43° NNW 23:03:41 43° NNW
